Time,TemperatureF,DewpointF,PressureIn,WindDirection,WindDirectionDegrees,WindSpeedMPH,WindSpeedGustMPH,Humidity,HourlyPrecipIn,Conditions,Clouds,dailyrainin,SoftwareType,DateUTC
2013-01-27 00:01:00,23.0,13.0,30.17,ESE,110,3.0,4.0,65,0.00,,,0.00,VWS V14.01,2013-01-27 06:01:00,
2013-01-27 00:06:00,23.1,12.8,30.17,ESE,106,0.0,5.0,64,0.00,,,0.00,VWS V14.01,2013-01-27 06:06:00,
2013-01-27 00:11:00,23.1,12.8,30.17,ESE,104,3.0,6.0,64,0.00,,,0.00,VWS V14.01,2013-01-27 06:11:00,
2013-01-27 00:16:00,23.2,12.8,30.17,ESE,104,4.0,6.0,64,0.00,,,0.00,VWS V14.01,2013-01-27 06:16:00,
2013-01-27 00:22:00,23.3,12.9,30.17,East,99,2.0,6.0,64,0.00,,,0.00,VWS V14.01,2013-01-27 06:22:00,
2013-01-27 00:27:00,23.3,12.9,30.17,ESE,115,3.0,6.0,64,0.00,,,0.00,VWS V14.01,2013-01-27 06:27:00,
2013-01-27 00:32:00,23.5,13.1,30.17,ESE,112,2.0,4.0,64,0.00,,,0.00,VWS V14.01,2013-01-27 06:32:00,
2013-01-27 00:37:00,23.6,13.2,30.17,ESE,119,3.0,5.0,64,0.00,,,0.00,VWS V14.01,2013-01-27 06:37:00,
2013-01-27 00:42:00,23.8,13.1,30.16,East,95,3.0,8.0,63,0.00,,,0.00,VWS V14.01,2013-01-27 06:42:00,
2013-01-27 00:47:00,24.1,13.3,30.16,ESE,117,3.0,8.0,63,0.00,,,0.00,VWS V14.01,2013-01-27 06:47:00,
2013-01-27 00:52:00,24.4,13.3,30.16,SSW,212,0.0,8.0,62,0.00,,,0.00,VWS V14.01,2013-01-27 06:52:00,
2013-01-27 00:57:00,24.8,13.6,30.15,SSE,147,0.0,8.0,62,0.00,,,0.00,VWS V14.01,2013-01-27 06:57:00,
2013-01-27 01:02:00,25.1,13.6,30.15,ESE,115,1.0,5.0,61,0.00,,,0.00,VWS V14.01,2013-01-27 07:02:00,
2013-01-27 01:07:00,25.2,13.6,30.15,ESE,103,0.0,5.0,61,0.00,,,0.00,VWS V14.01,2013-01-27 07:07:00,
2013-01-27 01:13:00,25.2,13.6,30.15,ESE,104,3.0,5.0,61,0.00,,,0.00,VWS V14.01,2013-01-27 07:13:00,
2013-01-27 01:18:00,25.3,13.8,30.15,ESE,105,0.0,5.0,61,0.00,,,0.00,VWS V14.01,2013-01-27 07:18:00,
2013-01-27 01:23:00,25.3,13.8,30.15,ESE,105,3.0,5.0,61,0.00,,,0.00,VWS V14.01,2013-01-27 07:23:00,
2013-01-27 01:28:00,25.3,13.8,30.14,ESE,122,5.0,7.0,61,0.00,,,0.00,VWS V14.01,2013-01-27 07:28:00,
2013-01-27 01:33:00,25.2,13.6,30.14,ESE,105,1.0,4.0,61,0.00,,,0.00,VWS V14.01,2013-01-27 07:33:00,
2013-01-27 01:38:00,25.2,13.6,30.14,ESE,117,1.0,4.0,61,0.00,,,0.00,VWS V14.01,2013-01-27 07:38:00,
2013-01-27 01:43:00,25.0,13.8,30.14,ESE,102,0.0,4.0,62,0.00,,,0.00,VWS V14.01,2013-01-27 07:43:00,
2013-01-27 01:48:00,25.0,13.8,30.14,East,94,0.0,4.0,62,0.00,,,0.00,VWS V14.01,2013-01-27 07:48:00,
2013-01-27 01:53:00,25.0,13.8,30.14,ESE,112,0.0,4.0,62,0.00,,,0.00,VWS V14.01,2013-01-27 07:53:00,
2013-01-27 01:59:00,25.1,13.9,30.14,ESE,118,2.0,4.0,62,0.00,,,0.00,VWS V14.01,2013-01-27 07:59:00,
2013-01-27 02:04:00,25.1,13.9,30.14,ESE,105,1.0,3.0,62,0.00,,,0.00,VWS V14.01,2013-01-27 08:04:00,
2013-01-27 02:09:00,25.0,13.8,30.14,ESE,118,2.0,5.0,62,0.00,,,0.00,VWS V14.01,2013-01-27 08:09:00,
2013-01-27 02:14:00,24.9,13.7,30.14,East,100,0.0,5.0,62,0.00,,,0.00,VWS V14.01,2013-01-27 08:14:00,
2013-01-27 02:19:00,24.9,14.1,30.14,ESE,116,1.0,5.0,63,0.00,,,0.00,VWS V14.01,2013-01-27 08:19:00,
2013-01-27 02:24:00,24.9,14.1,30.14,ESE,120,2.0,5.0,63,0.00,,,0.00,VWS V14.01,2013-01-27 08:24:00,
2013-01-27 02:29:00,24.9,14.1,30.14,ESE,110,3.0,5.0,63,0.00,,,0.00,VWS V14.01,2013-01-27 08:29:00,
2013-01-27 02:34:00,24.9,14.1,30.13,ESE,108,0.0,3.0,63,0.00,,,0.00,VWS V14.01,2013-01-27 08:34:00,
2013-01-27 02:39:00,24.9,14.1,30.13,ESE,111,0.0,3.0,63,0.00,,,0.00,VWS V14.01,2013-01-27 08:39:00,
2013-01-27 02:45:00,24.8,14.0,30.13,ESE,111,0.0,3.0,63,0.00,,,0.00,VWS V14.01,2013-01-27 08:45:00,
2013-01-27 02:50:00,24.9,14.1,30.13,ESE,112,0.0,3.0,63,0.00,,,0.00,VWS V14.01,2013-01-27 08:50:00,
2013-01-27 02:55:00,24.9,14.5,30.13,ESE,113,0.0,3.0,64,0.00,,,0.00,VWS V14.01,2013-01-27 08:55:00,
2013-01-27 03:00:00,24.9,14.5,30.13,ESE,112,0.0,1.0,64,0.00,,,0.00,VWS V14.01,2013-01-27 09:00:00,
2013-01-27 03:05:00,24.8,14.4,30.12,ESE,112,0.0,1.0,64,0.00,,,0.00,VWS V14.01,2013-01-27 09:05:00,
2013-01-27 03:10:00,24.6,14.2,30.12,ESE,113,0.0,2.0,64,0.00,,,0.00,VWS V14.01,2013-01-27 09:10:00,
2013-01-27 03:15:00,24.5,14.1,30.12,ESE,113,0.0,2.0,64,0.00,,,0.00,VWS V14.01,2013-01-27 09:15:00,
2013-01-27 03:20:00,24.4,14.3,30.11,ESE,113,0.0,2.0,65,0.00,,,0.00,VWS V14.01,2013-01-27 09:20:00,
2013-01-27 03:25:00,24.4,14.3,30.11,ESE,120,0.0,4.0,65,0.00,,,0.00,VWS V14.01,2013-01-27 09:25:00,
2013-01-27 03:30:00,24.5,14.4,30.11,ESE,119,0.0,0.0,65,0.00,,,0.00,VWS V14.01,2013-01-27 09:30:00,
2013-01-27 03:36:00,24.4,14.3,30.11,ESE,119,0.0,0.0,65,0.00,,,0.00,VWS V14.01,2013-01-27 09:36:00,
2013-01-27 03:41:00,24.5,14.4,30.11,East,101,3.0,3.0,65,0.00,,,0.00,VWS V14.01,2013-01-27 09:41:00,
2013-01-27 03:46:00,24.6,14.5,30.10,ESE,109,0.0,3.0,65,0.00,,,0.00,VWS V14.01,2013-01-27 09:46:00,
2013-01-27 03:51:00,24.7,14.6,30.10,East,100,0.0,3.0,65,0.00,,,0.00,VWS V14.01,2013-01-27 09:51:00,
2013-01-27 03:56:00,24.8,14.7,30.09,ESE,120,0.0,4.0,65,0.00,,,0.00,VWS V14.01,2013-01-27 09:56:00,
2013-01-27 04:01:00,24.9,14.8,30.09,ESE,111,2.0,3.0,65,0.00,,,0.00,VWS V14.01,2013-01-27 10:01:00,
2013-01-27 04:06:00,25.0,14.9,30.09,ESE,108,2.0,3.0,65,0.00,,,0.00,VWS V14.01,2013-01-27 10:06:00,
2013-01-27 04:11:00,25.2,15.1,30.09,ESE,105,0.0,3.0,65,0.00,,,0.00,VWS V14.01,2013-01-27 10:11:00,
2013-01-27 04:16:00,25.4,15.3,30.09,ESE,111,1.0,4.0,65,0.00,,,0.00,VWS V14.01,2013-01-27 10:16:00,
2013-01-27 04:21:00,25.6,15.1,30.08,SE,125,0.0,4.0,64,0.00,,,0.00,VWS V14.01,2013-01-27 10:21:00,
2013-01-27 04:27:00,25.8,15.3,30.08,ESE,118,4.0,5.0,64,0.00,,,0.00,VWS V14.01,2013-01-27 10:27:00,
2013-01-27 04:32:00,26.0,15.5,30.08,ESE,114,2.0,4.0,64,0.00,,,0.00,VWS V14.01,2013-01-27 10:32:00,
2013-01-27 04:37:00,26.3,15.4,30.08,ESE,111,2.0,5.0,63,0.00,,,0.00,VWS V14.01,2013-01-27 10:37:00,
2013-01-27 04:42:00,26.4,15.5,30.08,East,90,1.0,5.0,63,0.00,,,0.00,VWS V14.01,2013-01-27 10:42:00,
2013-01-27 04:47:00,26.5,15.6,30.08,ESE,104,2.0,5.0,63,0.00,,,0.00,VWS V14.01,2013-01-27 10:47:00,
2013-01-27 04:52:00,26.6,15.7,30.08,ESE,118,3.0,5.0,63,0.00,,,0.00,VWS V14.01,2013-01-27 10:52:00,
2013-01-27 04:57:00,26.5,15.6,30.08,ESE,105,0.0,5.0,63,0.00,,,0.00,VWS V14.01,2013-01-27 10:57:00,
2013-01-27 05:02:00,26.5,15.6,30.07,SE,130,0.0,3.0,63,0.00,,,0.00,VWS V14.01,2013-01-27 11:02:00,
2013-01-27 05:07:00,26.4,15.9,30.07,ESE,116,3.0,4.0,64,0.00,,,0.00,VWS V14.01,2013-01-27 11:07:00,
2013-01-27 05:12:00,26.4,15.9,30.07,ESE,109,0.0,4.0,64,0.00,,,0.00,VWS V14.01,2013-01-27 11:12:00,
2013-01-27 05:18:00,26.5,16.0,30.07,ESE,110,2.0,4.0,64,0.00,,,0.00,VWS V14.01,2013-01-27 11:18:00,
2013-01-27 05:23:00,26.7,16.2,30.07,ESE,105,2.0,5.0,64,0.00,,,0.00,VWS V14.01,2013-01-27 11:23:00,
2013-01-27 05:28:00,26.9,16.0,30.07,ESE,115,0.0,5.0,63,0.00,,,0.00,VWS V14.01,2013-01-27 11:28:00,
2013-01-27 05:33:00,26.9,16.4,30.07,ESE,107,2.0,3.0,64,0.00,,,0.00,VWS V14.01,2013-01-27 11:33:00,
2013-01-27 05:38:00,26.9,16.4,30.07,ESE,108,0.0,3.0,64,0.00,,,0.00,VWS V14.01,2013-01-27 11:38:00,
2013-01-27 05:43:00,26.9,16.4,30.07,ESE,112,3.0,5.0,64,0.00,,,0.00,VWS V14.01,2013-01-27 11:43:00,
2013-01-27 05:48:00,26.9,16.4,30.07,ESE,108,0.0,5.0,64,0.00,,,0.00,VWS V14.01,2013-01-27 11:48:00,
2013-01-27 05:53:00,26.9,16.4,30.06,ESE,120,1.0,5.0,64,0.00,,,0.00,VWS V14.01,2013-01-27 11:53:00,
2013-01-27 05:58:00,26.9,16.4,30.06,ESE,105,0.0,5.0,64,0.00,,,0.00,VWS V14.01,2013-01-27 11:58:00,
2013-01-27 06:03:00,26.7,16.2,30.06,ESE,112,0.0,2.0,64,0.00,,,0.00,VWS V14.01,2013-01-27 12:03:00,
2013-01-27 06:09:00,26.6,16.4,30.06,ESE,112,0.0,2.0,65,0.00,,,0.00,VWS V14.01,2013-01-27 12:09:00,
2013-01-27 06:14:00,26.6,16.4,30.06,ESE,112,0.0,2.0,65,0.00,,,0.00,VWS V14.01,2013-01-27 12:14:00,
2013-01-27 06:19:00,26.6,16.4,30.06,ESE,114,0.0,2.0,65,0.00,,,0.00,VWS V14.01,2013-01-27 12:19:00,
2013-01-27 06:24:00,26.7,16.5,30.06,ESE,111,0.0,3.0,65,0.00,,,0.00,VWS V14.01,2013-01-27 12:24:00,
2013-01-27 06:29:00,27.0,16.8,30.06,East,97,0.0,3.0,65,0.00,,,0.00,VWS V14.01,2013-01-27 12:29:00,
2013-01-27 06:34:00,27.2,17.0,30.05,ESE,112,0.0,4.0,65,0.00,,,0.00,VWS V14.01,2013-01-27 12:34:00,
2013-01-27 06:39:00,27.4,17.2,30.05,ESE,117,2.0,4.0,65,0.00,,,0.00,VWS V14.01,2013-01-27 12:39:00,
2013-01-27 06:44:00,27.6,17.0,30.05,ESE,120,0.0,4.0,64,0.00,,,0.00,VWS V14.01,2013-01-27 12:44:00,
2013-01-27 06:49:00,27.9,17.3,30.06,ESE,114,1.0,4.0,64,0.00,,,0.00,VWS V14.01,2013-01-27 12:49:00,
2013-01-27 06:55:00,28.0,17.4,30.05,ESE,108,2.0,4.0,64,0.00,,,0.00,VWS V14.01,2013-01-27 12:55:00,
2013-01-27 07:00:00,28.2,17.6,30.05,ESE,112,0.0,4.0,64,0.00,,,0.00,VWS V14.01,2013-01-27 13:00:00,
2013-01-27 07:05:00,28.4,17.4,30.05,ESE,109,3.0,5.0,63,0.00,,,0.00,VWS V14.01,2013-01-27 13:05:00,
2013-01-27 07:10:00,28.6,17.6,30.05,ESE,110,0.0,5.0,63,0.00,,,0.00,VWS V14.01,2013-01-27 13:10:00,
2013-01-27 07:15:00,28.7,17.7,30.06,ESE,112,3.0,5.0,63,0.00,,,0.00,VWS V14.01,2013-01-27 13:15:00,
2013-01-27 07:20:00,28.9,17.9,30.05,ESE,108,0.0,5.0,63,0.00,,,0.00,VWS V14.01,2013-01-27 13:20:00,
2013-01-27 07:25:00,29.2,17.8,30.06,ESE,113,0.0,5.0,62,0.00,,,0.00,VWS V14.01,2013-01-27 13:25:00,
2013-01-27 07:30:00,29.4,18.0,30.05,SE,125,0.0,1.0,62,0.00,,,0.00,VWS V14.01,2013-01-27 13:30:00,
2013-01-27 07:35:00,29.6,18.2,30.05,East,95,0.0,5.0,62,0.00,,,0.00,VWS V14.01,2013-01-27 13:35:00,
2013-01-27 07:40:00,29.8,18.0,30.05,ESE,120,0.0,5.0,61,0.00,,,0.00,VWS V14.01,2013-01-27 13:40:00,
2013-01-27 07:45:00,30.0,18.2,30.04,ESE,108,0.0,5.0,61,0.00,,,0.00,VWS V14.01,2013-01-27 13:45:00,
2013-01-27 07:50:00,30.2,18.4,30.04,East,100,0.0,5.0,61,0.00,,,0.00,VWS V14.01,2013-01-27 13:50:00,
2013-01-27 07:55:00,30.3,18.5,30.04,SE,131,1.0,6.0,61,0.00,,,0.00,VWS V14.01,2013-01-27 13:55:00,
2013-01-27 08:00:00,30.5,18.3,30.04,ENE,75,0.0,2.0,60,0.00,,,0.00,VWS V14.01,2013-01-27 14:00:00,
2013-01-27 08:05:00,30.6,18.4,30.04,ESE,108,2.0,6.0,60,0.00,,,0.00,VWS V14.01,2013-01-27 14:05:00,
2013-01-27 08:10:00,30.7,18.5,30.04,SE,128,0.0,6.0,60,0.00,,,0.00,VWS V14.01,2013-01-27 14:10:00,
2013-01-27 08:15:00,30.8,18.6,30.04,ESE,117,0.0,6.0,60,0.00,,,0.00,VWS V14.01,2013-01-27 14:15:00,
2013-01-27 08:21:00,30.8,18.6,30.04,ESE,116,3.0,6.0,60,0.00,,,0.00,VWS V14.01,2013-01-27 14:21:00,
2013-01-27 08:26:00,30.9,18.7,30.04,ESE,112,0.0,6.0,60,0.00,,,0.00,VWS V14.01,2013-01-27 14:26:00,
2013-01-27 08:31:00,31.0,18.8,30.04,ESE,108,0.0,2.0,60,0.00,,,0.00,VWS V14.01,2013-01-27 14:31:00,
2013-01-27 08:36:00,31.1,18.9,30.03,ESE,120,0.0,7.0,60,0.00,,,0.00,VWS V14.01,2013-01-27 14:36:00,
2013-01-27 08:41:00,31.2,19.0,30.03,ESE,113,0.0,7.0,60,0.00,,,0.00,VWS V14.01,2013-01-27 14:41:00,
2013-01-27 08:46:00,31.3,19.0,30.03,ESE,106,0.0,7.0,60,0.00,,,0.00,VWS V14.01,2013-01-27 14:46:00,
2013-01-27 08:51:00,31.4,18.7,30.03,East,95,6.0,8.0,59,0.00,,,0.00,VWS V14.01,2013-01-27 14:51:00,
2013-01-27 08:56:00,31.5,18.8,30.03,East,81,0.0,8.0,59,0.00,,,0.00,VWS V14.01,2013-01-27 14:56:00,
2013-01-27 09:01:00,31.5,18.8,30.03,ESE,108,1.0,7.0,59,0.00,,,0.00,VWS V14.01,2013-01-27 15:01:00,
2013-01-27 09:06:00,31.6,18.9,30.02,ESE,120,0.0,7.0,59,0.00,,,0.00,VWS V14.01,2013-01-27 15:06:00,
2013-01-27 09:11:00,31.7,19.0,30.03,East,87,2.0,7.0,59,0.00,,,0.00,VWS V14.01,2013-01-27 15:11:00,
2013-01-27 09:16:00,31.7,19.0,30.02,East,97,0.0,7.0,59,0.00,,,0.00,VWS V14.01,2013-01-27 15:16:00,
2013-01-27 09:21:00,31.7,19.4,30.02,ESE,102,3.0,7.0,60,0.00,,,0.00,VWS V14.01,2013-01-27 15:21:00,
2013-01-27 09:26:00,31.6,19.3,30.02,East,93,6.0,7.0,60,0.00,,,0.00,VWS V14.01,2013-01-27 15:26:00,
2013-01-27 09:31:00,31.5,19.2,30.02,ESE,104,0.0,3.0,60,0.00,,,0.00,VWS V14.01,2013-01-27 15:31:00,
2013-01-27 09:36:00,31.5,19.2,30.02,ESE,118,1.0,6.0,60,0.00,,,0.00,VWS V14.01,2013-01-27 15:36:00,
2013-01-27 09:41:00,31.4,19.1,30.02,ESE,107,0.0,6.0,60,0.00,,,0.00,VWS V14.01,2013-01-27 15:41:00,
2013-01-27 09:47:00,31.5,19.2,30.02,East,95,2.0,7.0,60,0.00,,,0.00,VWS V14.01,2013-01-27 15:47:00,
2013-01-27 09:52:00,31.5,19.2,30.01,East,100,3.0,7.0,60,0.00,,,0.00,VWS V14.01,2013-01-27 15:52:00,
2013-01-27 09:57:00,31.6,19.3,30.01,East,88,3.0,7.0,60,0.00,,,0.00,VWS V14.01,2013-01-27 15:57:00,
2013-01-27 10:02:00,31.6,19.3,30.01,ESE,104,3.0,6.0,60,0.00,,,0.00,VWS V14.01,2013-01-27 16:02:00,
2013-01-27 10:07:00,31.6,19.7,30.01,East,90,5.0,7.0,61,0.00,,,0.00,VWS V14.01,2013-01-27 16:07:00,
2013-01-27 10:12:00,31.6,19.7,30.01,SE,130,4.0,8.0,61,0.00,,,0.00,VWS V14.01,2013-01-27 16:12:00,
2013-01-27 10:17:00,31.6,19.7,30.01,East,83,5.0,8.0,61,0.00,,,0.00,VWS V14.01,2013-01-27 16:17:00,
2013-01-27 10:22:00,31.7,19.8,30.01,East,91,5.0,8.0,61,0.00,,,0.00,VWS V14.01,2013-01-27 16:22:00,
2013-01-27 10:27:00,31.7,19.8,30.01,East,101,0.0,8.0,61,0.00,,,0.00,VWS V14.01,2013-01-27 16:27:00,
2013-01-27 10:33:00,31.8,19.9,30.01,East,95,2.0,6.0,61,0.00,,,0.00,VWS V14.01,2013-01-27 16:33:00,
2013-01-27 10:38:00,31.9,20.0,30.01,East,97,3.0,6.0,61,0.00,,,0.00,VWS V14.01,2013-01-27 16:38:00,
2013-01-27 10:43:00,32.0,20.1,30.02,ESE,117,0.0,6.0,61,0.00,,,0.00,VWS V14.01,2013-01-27 16:43:00,
2013-01-27 10:48:00,32.1,20.2,30.02,East,100,3.0,7.0,61,0.00,,,0.00,VWS V14.01,2013-01-27 16:48:00,
2013-01-27 10:53:00,32.2,20.7,30.02,East,97,0.0,7.0,62,0.00,,,0.00,VWS V14.01,2013-01-27 16:53:00,
2013-01-27 10:58:00,32.3,20.8,30.02,East,79,3.0,8.0,62,0.00,,,0.00,VWS V14.01,2013-01-27 16:58:00,
2013-01-27 11:03:00,32.4,21.2,30.01,ESE,112,0.0,5.0,63,0.00,,,0.00,VWS V14.01,2013-01-27 17:03:00,
2013-01-27 11:08:00,32.5,21.3,30.01,ESE,104,3.0,9.0,63,0.00,,,0.00,VWS V14.01,2013-01-27 17:08:00,
2013-01-27 11:13:00,32.6,21.8,30.01,East,85,5.0,9.0,64,0.00,,,0.00,VWS V14.01,2013-01-27 17:13:00,
2013-01-27 11:18:00,32.7,22.2,30.01,ESE,110,9.0,9.0,65,0.00,,,0.00,VWS V14.01,2013-01-27 17:18:00,
2013-01-27 11:23:00,32.7,22.2,30.00,East,91,2.0,9.0,65,0.00,,,0.00,VWS V14.01,2013-01-27 17:23:00,
2013-01-27 11:29:00,32.7,23.0,30.00,ESE,119,7.0,10.0,67,0.00,,,0.00,VWS V14.01,2013-01-27 17:29:00,
2013-01-27 11:34:00,32.7,23.3,30.00,ENE,77,7.0,7.0,68,0.00,,,0.00,VWS V14.01,2013-01-27 17:34:00,
2013-01-27 11:39:00,32.7,23.3,30.00,ESE,110,2.0,8.0,68,0.00,,,0.00,VWS V14.01,2013-01-27 17:39:00,
2013-01-27 11:44:00,32.7,24.4,29.99,ESE,108,1.0,8.0,71,0.00,,,0.00,VWS V14.01,2013-01-27 17:44:00,
2013-01-27 11:49:00,32.6,24.6,29.99,ESE,111,2.0,8.0,72,0.00,,,0.00,VWS V14.01,2013-01-27 17:49:00,
2013-01-27 11:54:00,32.5,24.8,29.99,ESE,118,3.0,9.0,73,0.00,,,0.00,VWS V14.01,2013-01-27 17:54:00,
2013-01-27 11:59:00,32.5,25.5,29.98,East,100,0.0,9.0,75,0.00,,,0.00,VWS V14.01,2013-01-27 17:59:00,
2013-01-27 12:04:00,32.4,25.7,29.98,East,81,2.0,8.0,76,0.00,,,0.00,VWS V14.01,2013-01-27 18:04:00,
2013-01-27 12:09:00,32.2,25.8,29.97,ESE,106,3.0,9.0,77,0.00,,,0.00,VWS V14.01,2013-01-27 18:09:00,
2013-01-27 12:15:00,32.1,26.6,29.97,East,99,5.0,9.0,80,0.00,,,0.00,VWS V14.01,2013-01-27 18:15:00,
2013-01-27 12:20:00,31.8,27.2,29.96,ESE,111,7.0,10.0,83,0.00,,,0.00,VWS V14.01,2013-01-27 18:20:00,
2013-01-27 12:25:00,31.6,27.6,29.96,ESE,116,10.0,11.0,85,0.00,,,0.00,VWS V14.01,2013-01-27 18:25:00,
2013-01-27 12:41:00,31.2,28.1,29.95,East,97,5.0,12.0,88,0.01,,,0.01,VWS V14.01,2013-01-27 18:41:00,
2013-01-27 12:46:00,31.1,28.2,29.94,ESE,116,3.0,12.0,89,0.01,,,0.01,VWS V14.01,2013-01-27 18:46:00,
2013-01-27 12:51:00,31.1,28.5,29.94,ESE,104,9.0,12.0,90,0.02,,,0.02,VWS V14.01,2013-01-27 18:51:00,
2013-01-27 12:56:00,31.1,28.5,29.94,East,94,3.0,12.0,90,0.02,,,0.02,VWS V14.01,2013-01-27 18:56:00,
2013-01-27 13:01:00,31.1,28.8,29.93,ESE,104,7.0,9.0,91,0.02,,,0.02,VWS V14.01,2013-01-27 19:01:00,
2013-01-27 13:06:00,31.1,28.8,29.93,ESE,120,5.0,9.0,91,0.03,,,0.03,VWS V14.01,2013-01-27 19:06:00,
2013-01-27 13:11:00,31.2,28.9,29.93,East,87,2.0,10.0,91,0.04,,,0.04,VWS V14.01,2013-01-27 19:11:00,
2013-01-27 13:17:00,31.2,28.9,29.93,East,85,6.0,10.0,91,0.05,,,0.05,VWS V14.01,2013-01-27 19:17:00,
2013-01-27 13:22:00,31.2,28.9,29.93,ESE,108,3.0,10.0,91,0.05,,,0.05,VWS V14.01,2013-01-27 19:22:00,
2013-01-27 13:27:00,31.2,28.9,29.93,East,97,2.0,10.0,91,0.05,,,0.05,VWS V14.01,2013-01-27 19:27:00,
2013-01-27 13:32:00,31.2,28.9,29.92,ESE,117,0.0,7.0,91,0.05,,,0.06,VWS V14.01,2013-01-27 19:32:00,
2013-01-27 13:37:00,31.2,29.1,29.92,ESE,108,0.0,7.0,92,0.05,,,0.06,VWS V14.01,2013-01-27 19:37:00,
2013-01-27 13:42:00,31.3,29.0,29.91,ESE,104,1.0,7.0,91,0.05,,,0.06,VWS V14.01,2013-01-27 19:42:00,
2013-01-27 13:47:00,31.3,29.0,29.91,East,96,0.0,7.0,91,0.06,,,0.07,VWS V14.01,2013-01-27 19:47:00,
2013-01-27 13:52:00,31.3,29.2,29.91,East,95,2.0,7.0,92,0.06,,,0.07,VWS V14.01,2013-01-27 19:52:00,
2013-01-27 13:57:00,31.3,29.2,29.91,East,101,3.0,7.0,92,0.07,,,0.08,VWS V14.01,2013-01-27 19:57:00,
2013-01-27 14:02:00,31.4,29.4,29.91,ESE,114,2.0,2.0,92,0.06,,,0.08,VWS V14.01,2013-01-27 20:02:00,
2013-01-27 14:07:00,31.4,29.4,29.90,ESE,114,0.0,2.0,92,0.07,,,0.09,VWS V14.01,2013-01-27 20:07:00,
2013-01-27 14:12:00,31.4,29.6,29.91,ESE,112,1.0,3.0,93,0.08,,,0.10,VWS V14.01,2013-01-27 20:12:00,
2013-01-27 14:18:00,31.5,29.7,29.90,East,95,2.0,5.0,93,0.09,,,0.11,VWS V14.01,2013-01-27 20:18:00,
2013-01-27 14:23:00,31.5,29.7,29.90,ESE,103,0.0,5.0,93,0.09,,,0.11,VWS V14.01,2013-01-27 20:23:00,
2013-01-27 14:28:00,31.4,29.6,29.89,East,81,3.0,7.0,93,0.10,,,0.12,VWS V14.01,2013-01-27 20:28:00,
2013-01-27 14:33:00,31.2,29.4,29.89,East,97,3.0,6.0,93,0.08,,,0.13,VWS V14.01,2013-01-27 20:33:00,
2013-01-27 14:38:00,31.1,29.3,29.89,East,96,2.0,7.0,93,0.10,,,0.15,VWS V14.01,2013-01-27 20:38:00,
2013-01-27 14:43:00,31.0,29.2,29.89,East,90,0.0,7.0,93,0.11,,,0.16,VWS V14.01,2013-01-27 20:43:00,
2013-01-27 14:48:00,31.0,29.2,29.88,East,97,2.0,7.0,93,0.12,,,0.17,VWS V14.01,2013-01-27 20:48:00,
2013-01-27 14:53:00,31.0,29.5,29.88,SE,124,3.0,7.0,94,0.13,,,0.18,VWS V14.01,2013-01-27 20:53:00,
2013-01-27 14:58:00,31.0,29.5,29.88,ESE,120,0.0,7.0,94,0.14,,,0.19,VWS V14.01,2013-01-27 20:58:00,
2013-01-27 15:03:00,31.1,29.6,29.88,East,94,0.0,3.0,94,0.12,,,0.20,VWS V14.01,2013-01-27 21:03:00,
2013-01-27 15:08:00,31.1,29.6,29.88,East,97,1.0,4.0,94,0.13,,,0.21,VWS V14.01,2013-01-27 21:08:00,
2013-01-27 15:13:00,31.2,29.7,29.88,ESE,114,0.0,4.0,94,0.14,,,0.22,VWS V14.01,2013-01-27 21:13:00,
2013-01-27 15:18:00,31.2,29.7,29.88,ESE,110,0.0,5.0,94,0.15,,,0.23,VWS V14.01,2013-01-27 21:18:00,
2013-01-27 15:24:00,31.2,29.7,29.88,East,97,1.0,5.0,94,0.16,,,0.24,VWS V14.01,2013-01-27 21:24:00,
2013-01-27 15:29:00,31.2,29.7,29.88,ESE,118,0.0,5.0,94,0.17,,,0.25,VWS V14.01,2013-01-27 21:29:00,
2013-01-27 15:34:00,31.1,29.6,29.88,East,100,2.0,5.0,94,0.13,,,0.26,VWS V14.01,2013-01-27 21:34:00,
2013-01-27 15:39:00,31.1,29.6,29.88,ESE,112,0.0,5.0,94,0.14,,,0.27,VWS V14.01,2013-01-27 21:39:00,
2013-01-27 15:44:00,31.1,29.6,29.88,ESE,108,3.0,5.0,94,0.15,,,0.28,VWS V14.01,2013-01-27 21:44:00,
2013-01-27 15:49:00,31.1,29.6,29.88,ESE,111,0.0,5.0,94,0.16,,,0.29,VWS V14.01,2013-01-27 21:49:00,
2013-01-27 15:54:00,31.1,29.6,29.88,SE,132,0.0,5.0,94,0.16,,,0.29,VWS V14.01,2013-01-27 21:54:00,
2013-01-27 15:59:00,31.2,29.7,29.88,ESE,109,0.0,5.0,94,0.17,,,0.30,VWS V14.01,2013-01-27 21:59:00,
2013-01-27 16:04:00,31.3,29.8,29.87,East,92,0.0,1.0,94,0.11,,,0.30,VWS V14.01,2013-01-27 22:04:00,
2013-01-27 16:09:00,31.2,29.7,29.87,East,91,0.0,2.0,94,0.11,,,0.30,VWS V14.01,2013-01-27 22:09:00,
2013-01-27 16:14:00,31.2,29.7,29.87,East,83,0.0,3.0,94,0.11,,,0.30,VWS V14.01,2013-01-27 22:14:00,
2013-01-27 16:19:00,31.2,29.7,29.87,East,96,0.0,3.0,94,0.11,,,0.30,VWS V14.01,2013-01-27 22:19:00,
2013-01-27 16:25:00,31.2,29.7,29.87,East,95,0.0,4.0,94,0.12,,,0.31,VWS V14.01,2013-01-27 22:25:00,
2013-01-27 16:30:00,31.3,29.8,29.87,East,99,0.0,4.0,94,0.12,,,0.31,VWS V14.01,2013-01-27 22:30:00,
2013-01-27 16:35:00,31.3,29.8,29.87,ESE,104,1.0,3.0,94,0.06,,,0.31,VWS V14.01,2013-01-27 22:35:00,
2013-01-27 16:40:00,31.3,29.8,29.87,ESE,108,0.0,3.0,94,0.06,,,0.31,VWS V14.01,2013-01-27 22:40:00,
2013-01-27 16:45:00,31.4,29.9,29.87,ESE,111,0.0,3.0,94,0.06,,,0.31,VWS V14.01,2013-01-27 22:45:00,
2013-01-27 16:50:00,31.4,29.9,29.87,East,87,0.0,3.0,94,0.06,,,0.31,VWS V14.01,2013-01-27 22:50:00,
2013-01-27 16:55:00,31.4,29.9,29.86,East,92,0.0,3.0,94,0.06,,,0.31,VWS V14.01,2013-01-27 22:55:00,
2013-01-27 17:00:00,31.4,29.9,29.86,East,83,0.0,0.0,94,0.01,,,0.31,VWS V14.01,2013-01-27 23:00:00,
2013-01-27 17:05:00,31.5,30.0,29.86,ENE,75,0.0,2.0,94,0.01,,,0.31,VWS V14.01,2013-01-27 23:05:00,
2013-01-27 17:10:00,31.5,30.0,29.86,SE,124,0.0,2.0,94,0.01,,,0.31,VWS V14.01,2013-01-27 23:10:00,
2013-01-27 17:15:00,31.5,30.0,29.86,ESE,114,3.0,3.0,94,0.01,,,0.31,VWS V14.01,2013-01-27 23:15:00,
2013-01-27 17:20:00,31.5,30.0,29.86,ESE,120,0.0,5.0,94,0.01,,,0.31,VWS V14.01,2013-01-27 23:20:00,
2013-01-27 17:25:00,31.5,30.0,29.85,East,100,0.0,5.0,94,0.01,,,0.31,VWS V14.01,2013-01-27 23:25:00,
2013-01-27 17:31:00,31.5,30.0,29.85,SE,133,0.0,0.0,94,0.00,,,0.31,VWS V14.01,2013-01-27 23:31:00,
2013-01-27 17:36:00,31.5,30.0,29.85,East,94,2.0,3.0,94,0.00,,,0.31,VWS V14.01,2013-01-27 23:36:00,
2013-01-27 17:41:00,31.5,30.0,29.85,ESE,118,0.0,3.0,94,0.00,,,0.31,VWS V14.01,2013-01-27 23:41:00,
2013-01-27 17:46:00,31.5,30.0,29.85,ESE,110,0.0,3.0,94,0.00,,,0.31,VWS V14.01,2013-01-27 23:46:00,
2013-01-27 17:51:00,31.5,30.0,29.85,ESE,107,0.0,3.0,94,0.00,,,0.31,VWS V14.01,2013-01-27 23:51:00,
2013-01-27 17:56:00,31.6,30.1,29.85,ESE,105,0.0,3.0,94,0.00,,,0.31,VWS V14.01,2013-01-27 23:56:00,
2013-01-27 18:01:00,31.6,30.1,29.85,ESE,105,0.0,0.0,94,0.00,,,0.31,VWS V14.01,2013-01-28 00:01:00,
2013-01-27 18:06:00,31.7,30.2,29.85,ESE,104,0.0,0.0,94,0.00,,,0.31,VWS V14.01,2013-01-28 00:06:00,
2013-01-27 18:11:00,31.8,30.3,29.85,ESE,105,0.0,3.0,94,0.00,,,0.31,VWS V14.01,2013-01-28 00:11:00,
2013-01-27 18:16:00,31.8,30.3,29.85,ESE,105,0.0,3.0,94,0.00,,,0.31,VWS V14.01,2013-01-28 00:16:00,
2013-01-27 18:21:00,31.9,30.4,29.85,ESE,118,0.0,4.0,94,0.00,,,0.31,VWS V14.01,2013-01-28 00:21:00,
2013-01-27 18:26:00,31.9,30.4,29.85,East,100,0.0,4.0,94,0.00,,,0.31,VWS V14.01,2013-01-28 00:26:00,
2013-01-27 18:31:00,32.0,30.5,29.85,ESE,116,0.0,1.0,94,0.00,,,0.31,VWS V14.01,2013-01-28 00:31:00,
2013-01-27 18:37:00,31.9,30.4,29.86,ESE,111,0.0,1.0,94,0.00,,,0.31,VWS V14.01,2013-01-28 00:37:00,
2013-01-27 18:42:00,31.9,30.4,29.86,ESE,108,0.0,1.0,94,0.00,,,0.31,VWS V14.01,2013-01-28 00:42:00,
2013-01-27 18:47:00,31.9,30.4,29.86,SE,125,0.0,1.0,94,0.01,,,0.32,VWS V14.01,2013-01-28 00:47:00,
2013-01-27 18:52:00,32.0,30.5,29.85,SE,125,0.0,1.0,94,0.01,,,0.32,VWS V14.01,2013-01-28 00:52:00,
2013-01-27 18:57:00,32.0,30.5,29.86,SE,125,0.0,1.0,94,0.01,,,0.32,VWS V14.01,2013-01-28 00:57:00,
2013-01-27 19:02:00,31.9,30.4,29.86,SE,125,0.0,0.0,94,0.02,,,0.33,VWS V14.01,2013-01-28 01:02:00,
2013-01-27 19:07:00,32.0,30.5,29.85,SE,125,0.0,0.0,94,0.02,,,0.33,VWS V14.01,2013-01-28 01:07:00,
2013-01-27 19:12:00,32.0,30.5,29.85,SE,125,0.0,0.0,94,0.02,,,0.33,VWS V14.01,2013-01-28 01:12:00,
2013-01-27 19:17:00,32.0,30.5,29.86,SE,125,0.0,0.0,94,0.02,,,0.33,VWS V14.01,2013-01-28 01:17:00,
2013-01-27 19:22:00,32.1,30.6,29.86,SE,124,0.0,0.0,94,0.03,,,0.34,VWS V14.01,2013-01-28 01:22:00,
2013-01-27 19:27:00,32.1,30.6,29.85,SE,125,0.0,0.0,94,0.03,,,0.34,VWS V14.01,2013-01-28 01:27:00,
2013-01-27 19:32:00,32.1,30.6,29.85,SE,124,0.0,0.0,94,0.03,,,0.34,VWS V14.01,2013-01-28 01:32:00,
2013-01-27 19:37:00,32.1,30.6,29.85,SE,125,0.0,0.0,94,0.03,,,0.34,VWS V14.01,2013-01-28 01:37:00,
2013-01-27 19:42:00,32.2,30.4,29.85,SE,124,0.0,0.0,93,0.03,,,0.34,VWS V14.01,2013-01-28 01:42:00,
2013-01-27 19:47:00,32.3,30.8,29.85,SE,125,0.0,0.0,94,0.03,,,0.34,VWS V14.01,2013-01-28 01:47:00,
2013-01-27 19:52:00,32.3,30.5,29.85,SE,125,0.0,0.0,93,0.03,,,0.34,VWS V14.01,2013-01-28 01:52:00,
2013-01-27 19:57:00,32.3,30.5,29.85,SE,125,0.0,0.0,93,0.03,,,0.34,VWS V14.01,2013-01-28 01:57:00,
2013-01-27 20:02:00,32.3,30.5,29.84,SE,124,0.0,0.0,93,0.02,,,0.34,VWS V14.01,2013-01-28 02:02:00,
2013-01-27 20:07:00,32.4,30.6,29.85,SE,125,0.0,0.0,93,0.02,,,0.34,VWS V14.01,2013-01-28 02:07:00,
2013-01-27 20:13:00,32.4,30.6,29.84,SE,125,0.0,0.0,93,0.02,,,0.34,VWS V14.01,2013-01-28 02:13:00,
2013-01-27 20:18:00,32.4,30.6,29.84,SE,125,0.0,0.0,93,0.02,,,0.34,VWS V14.01,2013-01-28 02:18:00,
2013-01-27 20:23:00,32.4,30.6,29.84,SE,125,0.0,0.0,93,0.02,,,0.34,VWS V14.01,2013-01-28 02:23:00,
2013-01-27 20:28:00,32.4,30.6,29.84,SE,125,0.0,0.0,93,0.02,,,0.34,VWS V14.01,2013-01-28 02:28:00,
2013-01-27 20:33:00,32.4,30.6,29.84,SE,125,0.0,0.0,93,0.00,,,0.34,VWS V14.01,2013-01-28 02:33:00,
2013-01-27 20:38:00,32.4,30.6,29.84,SE,125,0.0,0.0,93,0.00,,,0.34,VWS V14.01,2013-01-28 02:38:00,
2013-01-27 20:43:00,32.4,30.6,29.84,SE,125,0.0,0.0,93,0.00,,,0.34,VWS V14.01,2013-01-28 02:43:00,
2013-01-27 20:48:00,32.4,30.6,29.84,SE,125,0.0,0.0,93,0.00,,,0.34,VWS V14.01,2013-01-28 02:48:00,
2013-01-27 20:53:00,32.3,30.5,29.83,SE,125,0.0,0.0,93,0.00,,,0.34,VWS V14.01,2013-01-28 02:53:00,
2013-01-27 20:58:00,32.3,30.5,29.84,SE,125,0.0,0.0,93,0.00,,,0.34,VWS V14.01,2013-01-28 02:58:00,
2013-01-27 21:03:00,32.4,30.6,29.84,SE,124,0.0,0.0,93,0.00,,,0.34,VWS V14.01,2013-01-28 03:03:00,
2013-01-27 21:08:00,32.6,30.8,29.84,SE,125,0.0,0.0,93,0.00,,,0.34,VWS V14.01,2013-01-28 03:08:00,
2013-01-27 21:13:00,32.8,30.7,29.84,SE,125,0.0,0.0,92,0.00,,,0.34,VWS V14.01,2013-01-28 03:13:00,
2013-01-27 21:19:00,32.9,30.8,29.84,SE,125,0.0,0.0,92,0.01,,,0.35,VWS V14.01,2013-01-28 03:19:00,
2013-01-27 21:24:00,33.2,31.1,29.84,SE,125,0.0,0.0,92,0.01,,,0.35,VWS V14.01,2013-01-28 03:24:00,
2013-01-27 21:29:00,33.3,31.0,29.83,SE,125,0.0,0.0,91,0.01,,,0.35,VWS V14.01,2013-01-28 03:29:00,
2013-01-27 21:34:00,33.2,30.9,29.83,SE,124,0.0,0.0,91,0.01,,,0.35,VWS V14.01,2013-01-28 03:34:00,
2013-01-27 21:39:00,33.1,30.8,29.83,SE,124,0.0,0.0,91,0.01,,,0.35,VWS V14.01,2013-01-28 03:39:00,
2013-01-27 21:44:00,32.9,30.6,29.83,SE,125,0.0,0.0,91,0.01,,,0.35,VWS V14.01,2013-01-28 03:44:00,
2013-01-27 21:49:00,32.8,30.5,29.83,SE,124,0.0,0.0,91,0.01,,,0.35,VWS V14.01,2013-01-28 03:49:00,
2013-01-27 21:54:00,32.8,30.5,29.83,SE,125,0.0,0.0,91,0.01,,,0.35,VWS V14.01,2013-01-28 03:54:00,
2013-01-27 21:59:00,32.8,30.7,29.83,SE,125,0.0,0.0,92,0.01,,,0.35,VWS V14.01,2013-01-28 03:59:00,
2013-01-27 22:04:00,33.0,30.7,29.83,SE,125,0.0,0.0,91,0.01,,,0.35,VWS V14.01,2013-01-28 04:04:00,
2013-01-27 22:09:00,33.2,30.9,29.83,SE,124,0.0,0.0,91,0.01,,,0.35,VWS V14.01,2013-01-28 04:09:00,
2013-01-27 22:14:00,33.4,31.1,29.83,SE,125,0.0,0.0,91,0.01,,,0.35,VWS V14.01,2013-01-28 04:14:00,
2013-01-27 22:19:00,33.5,30.9,29.83,SE,125,0.0,0.0,90,0.01,,,0.35,VWS V14.01,2013-01-28 04:19:00,
2013-01-27 22:24:00,33.3,30.7,29.83,SE,125,0.0,0.0,90,0.01,,,0.35,VWS V14.01,2013-01-28 04:24:00,
2013-01-27 22:30:00,33.3,30.7,29.83,SE,125,0.0,0.0,90,0.01,,,0.35,VWS V14.01,2013-01-28 04:30:00,
2013-01-27 22:35:00,33.0,30.4,29.83,SE,125,0.0,0.0,90,0.00,,,0.35,VWS V14.01,2013-01-28 04:35:00,
2013-01-27 22:40:00,32.8,30.5,29.83,SE,124,0.0,0.0,91,0.00,,,0.35,VWS V14.01,2013-01-28 04:40:00,
2013-01-27 22:45:00,32.6,30.3,29.83,SE,125,0.0,0.0,91,0.00,,,0.35,VWS V14.01,2013-01-28 04:45:00,
2013-01-27 22:50:00,32.6,30.3,29.82,SE,125,0.0,0.0,91,0.00,,,0.35,VWS V14.01,2013-01-28 04:50:00,
2013-01-27 22:55:00,32.6,30.3,29.82,SE,124,0.0,0.0,91,0.00,,,0.35,VWS V14.01,2013-01-28 04:55:00,
2013-01-27 23:00:00,32.5,30.2,29.82,SE,124,0.0,0.0,91,0.00,,,0.35,VWS V14.01,2013-01-28 05:00:00,
2013-01-27 23:02:00,32.5,30.2,29.82,SE,125,0.0,0.0,91,0.00,,,0.35,VWS V14.01,2013-01-28 05:02:00,
2013-01-27 23:03:00,32.5,30.4,29.82,SE,125,0.0,0.0,92,0.00,,,0.35,VWS V14.01,2013-01-28 05:03:00,
2013-01-27 23:08:00,32.6,30.5,29.83,SE,125,0.0,0.0,92,0.00,,,0.35,VWS V14.01,2013-01-28 05:08:00,
2013-01-27 23:13:00,32.8,30.7,29.83,SE,125,0.0,0.0,92,0.00,,,0.35,VWS V14.01,2013-01-28 05:13:00,
2013-01-27 23:18:00,33.0,30.7,29.83,SE,125,0.0,0.0,91,0.00,,,0.35,VWS V14.01,2013-01-28 05:18:00,
2013-01-27 23:23:00,33.2,30.9,29.83,SE,124,0.0,0.0,91,0.00,,,0.35,VWS V14.01,2013-01-28 05:23:00,
2013-01-27 23:28:00,33.2,30.6,29.83,SE,124,0.0,0.0,90,0.00,,,0.35,VWS V14.01,2013-01-28 05:28:00,
2013-01-27 23:33:00,33.0,30.4,29.83,SE,125,0.0,0.0,90,0.00,,,0.35,VWS V14.01,2013-01-28 05:33:00,
2013-01-27 23:38:00,33.0,30.7,29.84,SE,124,0.0,0.0,91,0.00,,,0.35,VWS V14.01,2013-01-28 05:38:00,
2013-01-27 23:43:00,33.0,30.7,29.83,SE,125,0.0,0.0,91,0.00,,,0.35,VWS V14.01,2013-01-28 05:43:00,
2013-01-27 23:49:00,33.1,30.8,29.83,SE,124,0.0,0.0,91,0.00,,,0.35,VWS V14.01,2013-01-28 05:49:00,
2013-01-27 23:54:00,33.2,30.9,29.83,SE,125,0.0,0.0,91,0.00,,,0.35,VWS V14.01,2013-01-28 05:54:00,
2013-01-27 23:59:00,33.4,30.8,29.83,SE,125,0.0,0.0,90,0.00,,,0.35,VWS V14.01,2013-01-28 05:59:00,